EN

Hourly Weather Kapustyne

Today, 17 January, Sunday

Time Temperature Precipitation Wind Pressure Humidity
00:00 -15°C° 0 mm 5 mps 758 mmHg 87%
01:00 -15°C° 0 mm 5 mps 758 mmHg 86%
02:00 -18°C° 0 mm 5 mps 758 mmHg 85%
03:00 -18°C° 0 mm 5 mps 758 mmHg 85%
04:00 -18°C° 0 mm 5 mps 758 mmHg 86%
05:00 -19°C° 0 mm 5 mps 757 mmHg 87%
06:00 -19°C° 0 mm 5 mps 757 mmHg 86%
07:00 -18°C° 0 mm 4 mps 757 mmHg 86%
08:00 -18°C° 0 mm 4 mps 757 mmHg 85%
09:00 -17°C° 0 mm 4 mps 758 mmHg 83%
10:00 -17°C° 0 mm 4 mps 758 mmHg 81%
11:00 -17°C° 0 mm 5 mps 758 mmHg 79%
12:00 -15°C° 0 mm 4 mps 758 mmHg 78%
13:00 -15°C° 0 mm 4 mps 758 mmHg 78%
14:00 -14°C° 0 mm 4 mps 757 mmHg 77%
15:00 -15°C° 0 mm 4 mps 757 mmHg 79%
16:00 -14°C° 0 mm 3 mps 757 mmHg 81%
17:00 -15°C° 0 mm 3 mps 758 mmHg 83%
18:00 -15°C° 0 mm 3 mps 758 mmHg 84%
19:00 -14°C° 0 mm 2 mps 758 mmHg 85%
20:00 -15°C° 0 mm 2 mps 758 mmHg 86%
21:00 -15°C° 0 mm 2 mps 758 mmHg 87%
22:00 -15°C° 0 mm 2 mps 758 mmHg 88%
23:00 -14°C° 0 mm 1 mps 759 mmHg 88%

Tomorrow, 18 January, Monday

Time Temperature Precipitation Wind Pressure Humidity
00:00 -16°C° 0 mm 2 mps 758 mmHg 88%
01:00 -16°C° 0 mm 2 mps 758 mmHg 88%
02:00 -16°C° 0 mm 2 mps 758 mmHg 88%
03:00 -14°C° 0 mm 1 mps 759 mmHg 88%
04:00 -14°C° 0 mm 1 mps 759 mmHg 88%
05:00 -14°C° 0 mm 1 mps 759 mmHg 88%
06:00 -14°C° 0 mm 1 mps 759 mmHg 88%
07:00 -14°C° 0 mm 1 mps 759 mmHg 88%
08:00 -16°C° 0 mm 2 mps 759 mmHg 88%
09:00 -15°C° 0 mm 2 mps 760 mmHg 84%
10:00 -14°C° 0 mm 2 mps 760 mmHg 79%
11:00 -13°C° 0 mm 2 mps 760 mmHg 75%
12:00 -12°C° 0 mm 2 mps 760 mmHg 74%
13:00 -13°C° 0 mm 3 mps 760 mmHg 73%
14:00 -13°C° 0 mm 3 mps 760 mmHg 72%
15:00 -13°C° 0 mm 3 mps 760 mmHg 76%
16:00 -13°C° 0 mm 2 mps 760 mmHg 79%
17:00 -14°C° 0 mm 2 mps 760 mmHg 82%
18:00 -12°C° 0 mm 1 mps 760 mmHg 83%
19:00 -12°C° 0 mm 1 mps 761 mmHg 84%
20:00 -12°C° 0 mm 1 mps 761 mmHg 84%
21:00 -12°C° 0 mm 1 mps 761 mmHg 85%
22:00 -12°C° 0 mm 1 mps 761 mmHg 85%
23:00 -12°C° 0 mm 1 mps 762 mmHg 85%

Day after tomorrow, 19 January, Tuesday

Time Temperature Precipitation Wind Pressure Humidity
00:00 -14°C° 0 mm 2 mps 762 mmHg 86%
01:00 -15°C° 0 mm 2 mps 762 mmHg 88%
02:00 -15°C° 0 mm 2 mps 762 mmHg 89%
03:00 -15°C° 0 mm 2 mps 762 mmHg 89%
04:00 -15°C° 0 mm 2 mps 761 mmHg 90%
05:00 -16°C° 0 mm 3 mps 761 mmHg 91%
06:00 -15°C° 0 mm 2 mps 762 mmHg 90%
07:00 -16°C° 0 mm 2 mps 762 mmHg 89%
08:00 -16°C° 0 mm 2 mps 762 mmHg 89%
09:00 -15°C° 0 mm 2 mps 762 mmHg 84%
10:00 -14°C° 0 mm 2 mps 762 mmHg 79%
11:00 -14°C° 0 mm 3 mps 763 mmHg 75%
12:00 -14°C° 0 mm 3 mps 762 mmHg 74%
13:00 -13°C° 0 mm 3 mps 762 mmHg 73%
14:00 -13°C° 0 mm 3 mps 762 mmHg 72%
15:00 -12°C° 0 mm 2 mps 762 mmHg 74%
16:00 -13°C° 0 mm 2 mps 762 mmHg 77%
17:00 -11°C° 0 mm 1 mps 762 mmHg 80%
18:00 -12°C° 0 mm 1 mps 763 mmHg 80%
19:00 -12°C° 0 mm 1 mps 763 mmHg 80%
20:00 -12°C° 0 mm 1 mps 763 mmHg 80%
21:00 -12°C° 0 mm 1 mps 763 mmHg 80%
22:00 -12°C° 0 mm 1 mps 763 mmHg 80%
23:00 -12°C° 0 mm 1 mps 763 mmHg 80%

20 January, Wednesday

Time Temperature Precipitation Wind Pressure Humidity
00:00 -12°C° 0 mm 1 mps 763 mmHg 79%
01:00 -12°C° 0 mm 1 mps 763 mmHg 78%
02:00 -12°C° 0 mm 1 mps 764 mmHg 77%
03:00 -12°C° 0 mm 1 mps 763 mmHg 77%
04:00 -12°C° 0 mm 1 mps 763 mmHg 77%
05:00 -13°C° 0 mm 2 mps 763 mmHg 77%
06:00 -13°C° 0 mm 2 mps 764 mmHg 78%
07:00 -13°C° 0 mm 2 mps 764 mmHg 79%
08:00 -13°C° 0 mm 2 mps 764 mmHg 80%
09:00 -12°C° 0 mm 3 mps 764 mmHg 78%
10:00 -10°C° 0 mm 3 mps 764 mmHg 76%
11:00 -10°C° 0 mm 4 mps 765 mmHg 74%
12:00 -9°C° 0 mm 4 mps 764 mmHg 75%
13:00 -8°C° 0 mm 4 mps 764 mmHg 76%
14:00 -7°C° 0 mm 4 mps 764 mmHg 77%
15:00 -8°C° 0 mm 4 mps 764 mmHg 80%
16:00 -8°C° 0 mm 4 mps 764 mmHg 83%
17:00 -9°C° 0 mm 4 mps 764 mmHg 86%
18:00 -9°C° 0 mm 4 mps 764 mmHg 88%
19:00 -9°C° 0 mm 4 mps 764 mmHg 89%
20:00 -9°C° 0 mm 4 mps 765 mmHg 91%
21:00 -8°C° 0 mm 4 mps 764 mmHg 92%
22:00 -8°C° 0 mm 4 mps 764 mmHg 92%
23:00 -8°C° 0 mm 4 mps 764 mmHg 93%

21 January, Thursday

Time Temperature Precipitation Wind Pressure Humidity
00:00 -7°C° 0 mm 4 mps 764 mmHg 94%
01:00 -7°C° 0 mm 4 mps 764 mmHg 95%
02:00 -7°C° 0 mm 4 mps 764 mmHg 96%
03:00 -5°C° 0 mm 4 mps 764 mmHg 96%
04:00 -4°C° 0 mm 4 mps 763 mmHg 96%
05:00 -4°C° 0 mm 4 mps 763 mmHg 97%
06:00 -3°C° 0 mm 4 mps 763 mmHg 97%
07:00 -3°C° 0 mm 4 mps 763 mmHg 96%
08:00 -3°C° 0 mm 4 mps 763 mmHg 96%
09:00 -2°C° 0 mm 4 mps 763 mmHg 96%
10:00 -1°C° 0 mm 4 mps 763 mmHg 95%
11:00 0°C° 0 mm 4 mps 763 mmHg 95%
12:00 +2°C° 0 mm 3 mps 763 mmHg 94%
13:00 +3°C° 0 mm 3 mps 763 mmHg 93%
14:00 +3°C° 0 mm 3 mps 763 mmHg 92%
15:00 +3°C° 0 mm 3 mps 763 mmHg 92%
16:00 +2°C° 0 mm 3 mps 762 mmHg 92%
17:00 +1°C° 0 mm 3 mps 762 mmHg 92%
18:00 +1°C° 0 mm 3 mps 762 mmHg 92%
19:00 +1°C° 0 mm 3 mps 763 mmHg 92%
20:00 +1°C° 0 mm 3 mps 763 mmHg 92%
21:00 +1°C° 0 mm 3 mps 763 mmHg 92%
22:00 +1°C° 0 mm 3 mps 762 mmHg 92%
23:00 +1°C° 0 mm 3 mps 762 mmHg 92%

22 January, Friday

Time Temperature Precipitation Wind Pressure Humidity
00:00 +1°C° 0 mm 3 mps 762 mmHg 92%
01:00 +1°C° 0 mm 3 mps 762 mmHg 93%
02:00 0°C° 0 mm 4 mps 762 mmHg 93%
03:00 0°C° 0 mm 4 mps 762 mmHg 94%
04:00 0°C° 0 mm 4 mps 762 mmHg 94%
05:00 0°C° 0 mm 4 mps 762 mmHg 95%
06:00 +1°C° 0 mm 4 mps 762 mmHg 94%
07:00 +1°C° 0 mm 4 mps 762 mmHg 94%
08:00 +1°C° 0 mm 4 mps 762 mmHg 94%
09:00 +3°C° 0 mm 4 mps 761 mmHg 94%
10:00 +4°C° 0 mm 4 mps 761 mmHg 94%
11:00 +5°C° 0 mm 5 mps 761 mmHg 94%
12:00 +5°C° 0 mm 5 mps 761 mmHg 91%
13:00 +6°C° 0 mm 5 mps 760 mmHg 87%
14:00 +6°C° 0 mm 5 mps 760 mmHg 84%
15:00 +5°C° 0 mm 5 mps 759 mmHg 87%
16:00 +3°C° 0 mm 5 mps 759 mmHg 91%
17:00 +2°C° 0 mm 5 mps 759 mmHg 95%
18:00 +3°C° 0 mm 5 mps 759 mmHg 94%
19:00 +3°C° 0 mm 5 mps 759 mmHg 94%
20:00 +3°C° 0 mm 6 mps 758 mmHg 94%
21:00 +3°C° 0 mm 6 mps 758 mmHg 94%
22:00 +4°C° 0 mm 6 mps 758 mmHg 95%
23:00 +4°C° 0 mm 6 mps 758 mmHg 95%
Show more

We Need Your Consent

Meteoprog and our Service Providers may store and access personal data such as cookies, device identifiers or other similar technologies on your device and process such data to personalise content and ads, as well as provide social media features and to analyse the traffic.

  • Store and/or access information on your device

    Cookies, device identifiers or other information can be stored or accessed on your device for the purposes indicated above.

  • Personalised ads and content, ad and content measurement, audience insights, and products development

    Ads and content can be personalised based on a profile. More data can be added to better personalise ads and content. Ad and content performance can be measured. Insights about the audience who saw the ads and content can be derived. Such data can be used to develop or improve user’s experience, systems and software.

By clicking ‘I Agree’ you will allow the use of indicated cookies, device identifiers, web beacons or other similar technologies. Your settings can be changed in the browser on your device.

For certain purposes, legitimate interests may be relied on, rather than consent. You can read more about this in our Privacy and Cookie Policy.